Радвилишкис

Литва     55˚48′44″N   23˚32′49″E
темп.,
°C
ветер,
м/с
пор.,
м/с
влажн.,
%
обл.,
%
осадки,
мм/ч
давл.,
гПа
погр.,
м
5 декабря, сб
сб523:00+2˚ююв81788100 0.0 1013662
02:00+3˚ююв81790100 0.0 1013620
05:00+4˚ююв9189098 0.0 1013613
08:00+4˚ююв9179199 0.0 1014624
11:00+4˚ююв91888100 0.0 1016581
14:00+5˚ююв81688100 0.0 1016620
17:00+5˚ююв91788100 0.0 1017659
20:00+6˚ююв81688100 0.0 1018662
6 декабря, вс
вс623:00+6˚ююв81687100 0.0 1019669
02:00+6˚ююв81686100 0.0 1020660
05:00+5˚ююв81686100 0.0 1020671
08:00+5˚ююв81584100 0.0 1021765
11:00+5˚ююв91681100 0.0 1021736
14:00+4˚ююв8148192 0.0 1022654
17:00+2˚ююв8157896 0.0 1023670
20:00+1˚ююв8167395 0.0 1023657
7 декабря, пн
пн723:00ююв81662100 0.0 1024635
02:00−1˚юв8185772 0.0 1024582
05:00−1˚юв917530 0.0 1023592
08:00−1˚юв916540 0.0 1023630
11:00−1˚юв9165257 0.0 1023712
14:00юв9165067 0.0 1023722
17:00−2˚юв9185234 0.0 1023674
20:00−2˚юв8175050 0.0 1024680
8 декабря, вт
вт823:00−2˚юв8155641 0.0 1024648
02:00−3˚юв8156821 0.0 1024720
05:00−3˚юв815730 0.0 1024696
08:00−4˚юв815720 0.0 1025603
11:00−3˚юв713640 0.0 1025598
14:00−2˚юв712600 0.0 1025657
17:00−3˚юв614650 0.0 1025592
20:00−3˚юв614670 0.0 1026583
9 декабря, ср
ср923:00−4˚юв613680 0.0 1026617
02:00−5˚юв611710 0.0 1026626
05:00−5˚юв511750 0.0 1026542
08:00−5˚юв511780 0.0 1026448
11:00−4˚юв59760 0.0 1027414
14:00−3˚юв587643 0.0 1026430
17:00−3˚вюв5970100 0.0 1025458
20:00−3˚вюв5966100 0.0 1025470